Weather History for Jacksonville NAS, FL

Change the Weather History Date:

Wednesday, March 20, 2013

  Actual Average Record
Temperature  
Mean Temperature 60 °F -  
Max Temperature 66 °F 72 °F 91 °F (2003)
Min Temperature 53 °F 54 °F 48 °F (2001)
Degree Days  
Heating Degree Days 5    
Growing Degree Days 10 (Base 50)    
Moisture  
Dew Point 52 °F    
Average Humidity 73    
Maximum Humidity 100    
Minimum Humidity 52    
Precipitation  
Precipitation 0.13 in - - ()
Sea Level Pressure  
Sea Level Pressure 29.95 in    
Wind  
Wind Speed 8 mph (NNE)    
Max Wind Speed 20 mph    
Max Gust Speed -    
Visibility 10 miles    
Events Rain , Thunderstorm    
Averages and records for this station are not official NWS values.
T = Trace of Precipitation, MM = Missing Value Source: NWS Daily Summary

Daily Weather History Graph

Daily Weather History Graph

Search for Another Location

Airport:

Trip Planner

Search our weather history database for the weather conditions in past years. The results will help you decide how hot, cold, wet, or windy it might be!

Date:

Astronomy

Mar. 20, 2013 Rise Set
Actual Time 7:30 AM EDT 7:38 PM EDT
Civil Twilight 7:06 AM EDT 8:02 PM EDT
Nautical Twilight 6:38 AM EDT 8:30 PM EDT
Astronomical Twilight 6:10 AM EDT 8:58 PM EDT
Moon 1:34 PM EDT (3/20) 2:46 AM EDT (3/20)
Length of Visible Light 12h 55m
Length of Day
12h 08m
First Quarter, 59% of the Moon is Illuminated
Mar 20
First Quarter
Mar 27
Full
Apr 3
Last Quarter
Apr 10
New
Apr 18
First Quarter

Hourly Weather History & Observations

Time (EDT) Temp. Dew Point Humidity Pressure Visibility Wind Dir Wind Speed Gust Speed Precip Events Conditions
12:53 AM 66.0 °F 60.1 °F 81% 29.99 in 10.0 mi Calm Calm - N/A   Scattered Clouds
1:53 AM 64.0 °F 60.1 °F 87% 29.99 in 10.0 mi West 3.5 mph - N/A   Mostly Cloudy
2:53 AM 63.0 °F 60.1 °F 90% 29.99 in 10.0 mi NNW 3.5 mph - N/A   Mostly Cloudy
3:53 AM 63.0 °F 55.0 °F 75% 29.98 in 10.0 mi NW 4.6 mph - N/A   Mostly Cloudy
4:53 AM 63.0 °F 46.0 °F 54% 29.97 in 10.0 mi NNE 8.1 mph - N/A   Mostly Cloudy
5:53 AM 63.0 °F 45.0 °F 52% 29.97 in 10.0 mi NE 9.2 mph - N/A   Mostly Cloudy
6:53 AM 63.0 °F 46.9 °F 56% 29.96 in 10.0 mi NE 11.5 mph - N/A   Mostly Cloudy
7:53 AM 63.0 °F 46.9 °F 56% 29.97 in 10.0 mi NE 10.4 mph - N/A   Mostly Cloudy
8:53 AM 63.0 °F 48.0 °F 58% 30.00 in 10.0 mi NNE 10.4 mph - N/A   Overcast
9:53 AM 64.0 °F 50.0 °F 60% 30.01 in 10.0 mi NNE 10.4 mph - N/A   Mostly Cloudy
10:53 AM 64.9 °F 51.1 °F 61% 30.01 in 10.0 mi NNE 13.8 mph - N/A   Overcast
11:15 AM 64.4 °F 53.6 °F 68% 30.03 in 10.0 mi NNE 12.7 mph - 0.00 in Rain Light Rain
11:22 AM 64.4 °F 51.8 °F 64% 30.03 in 10.0 mi North 17.3 mph - 0.00 in   Overcast
11:53 AM 63.0 °F 51.1 °F 65% 30.02 in 10.0 mi NNE 16.1 mph - 0.00 in   Overcast
12:53 PM 64.9 °F 48.9 °F 56% 30.00 in 10.0 mi NNE 19.6 mph - N/A   Mostly Cloudy
1:53 PM 61.0 °F 50.0 °F 67% 29.96 in 10.0 mi North 19.6 mph - 0.00 in   Overcast
2:53 PM 64.0 °F 51.1 °F 63% 29.90 in 10.0 mi ENE 13.8 mph - N/A   Scattered Clouds
3:53 PM 63.0 °F 51.1 °F 65% 29.89 in 10.0 mi NNE 12.7 mph - N/A   Overcast
4:53 PM 63.0 °F 51.1 °F 65% 29.87 in 10.0 mi NNE 11.5 mph - 0.00 in Rain Light Rain
5:08 PM 62.6 °F 53.6 °F 72% 29.89 in 9.0 mi North 18.4 mph - 0.00 in Rain Light Rain
5:42 PM 59.0 °F 53.6 °F 82% 29.92 in 6.0 mi NNE 13.8 mph - 0.08 in Rain , Thunderstorm Thunderstorms and Rain
5:53 PM 57.9 °F 54.0 °F 87% 29.90 in 5.0 mi NNE 11.5 mph - 0.10 in Rain , Thunderstorm Light Thunderstorms and Rain
6:14 PM 57.2 °F 53.6 °F 88% 29.91 in 9.0 mi NNE 12.7 mph - 0.01 in Rain Light Rain
6:53 PM 57.0 °F 53.1 °F 87% 29.91 in 9.0 mi East 5.8 mph - 0.03 in Rain Light Rain
7:53 PM 57.0 °F 52.0 °F 83% 29.85 in 10.0 mi East 5.8 mph - 0.00 in   Mostly Cloudy
8:53 PM 57.0 °F 51.1 °F 81% 29.89 in 10.0 mi East 3.5 mph - N/A   Mostly Cloudy
9:53 PM 55.9 °F 52.0 °F 87% 29.89 in 10.0 mi Calm Calm - N/A   Scattered Clouds
10:53 PM 54.0 °F 53.1 °F 97% 29.89 in 10.0 mi West 4.6 mph - N/A   Scattered Clouds
11:53 PM 53.1 °F 53.1 °F 100% 29.90 in 8.0 mi Calm Calm - N/A   Clear